Regional Weather Roundup
Issued by NWS State College, PA

Home | Current Version | Previous Version | Text Only | Print | Product List | Glossary On
Versions: 1 2 3 4 5 6 7 8 9 10 11 12 13 14 15 16 17 18 19 20 21 22 23 24 25 26 27 28 29 30 31 32 33 34 35 36 37 38 39 40 41 42 43 44 45 46 47 48 49 50
000
ASUS41 KCTP 290610
RWRCTP

REGIONAL WEATHER ROUNDUP
NATIONAL WEATHER SERVICE STATE COLLEGE PA
200 AM EDT FRI AUG 29 2014

Note: "fair" indicates few or no clouds below 12,000 feet with no
significant weather and/or obstructions to visibility.

* = STATION THAT DOES NOT REPORT PRECIPITATION /E.G. RAIN...SNOW...ETC/
    THUNDER OR FOG.

PAZ002>004-007>009-013>016-020>023-029>032-290700-
WESTERN PENNSYLVANIA

CITY           SKY/WX    TMP DP  RH WIND       PRES   REMARKS
ERIE           FAIR      56  50  80 S5        30.16F
MEADVILLE      FAIR      52  49  89 CALM      30.18S
FRANKLIN*      MOCLDY    48  45  87 CALM      30.19S VSB 1/2
NEW CASTLE     FAIR      51  51 100 CALM      30.18F
BEAVER COUNTY  NOT AVBL
BUTLER*        FAIR      48  46  93 NE5       30.18F
PITTSBURGH INT FAIR      57  51  80 CALM      30.15F
PITTSBURGH     FAIR      58  50  75 NE5       30.14F
INDIANA*       CLEAR     52  52 100 CALM      30.20F
LATROBE        CLEAR     54  54 100 CALM      30.16F
WASHINGTON CO* MOCLDY    50  48  93 CALM      30.15F
$$

PAZ004>006-010>012-017>019-024>028-033>037-041-042-045-046-049>053-290700-
CENTRAL PENNSYLVANIA

CITY           SKY/WX    TMP DP  RH WIND       PRES   REMARKS
BRADFORD       FAIR      45  42  89 CALM      30.19F
DUBOIS         FAIR      49  47  93 NE5       30.18S
CLEARFIELD     FAIR      49  48  97 N5        30.19S
JOHNSTOWN      FAIR      54  48  80 E5        30.17F
ALTOONA        FAIR      52  51  97 CALM      30.17F
STATE COLLEGE  FAIR      53  50  91 CALM      30.17S
WILLIAMSPORT   FAIR      53  48  83 CALM      30.15S
SELINSGROVE    FAIR      52  50  93 CALM      30.15S
FT INDIANTOWN  FAIR      57  49  73 VRB1      30.14R
CAPITAL CITY   FAIR      56  50  80 SW3       30.14S
HARRISBURG     FAIR      60  50  69 N6        30.13S
YORK           FAIR      53  51  93 CALM      30.14R
$$

PAZ038>040-043-044-047-048-054-055-060>062-067>071-290700-
EASTERN PENNSYLVANIA

CITY           SKY/WX    TMP DP  RH WIND       PRES   REMARKS
SCRANTON       FAIR      53  49  86 CALM      30.14S
MOUNT POCONO   FAIR      51  47  86 N6        30.13S
ALLENTOWN      FAIR      58  47  66 CALM      30.12S
QUAKERTOWN*    FAIR      59  48  67 MISG      30.12S
READING        FAIR      58  49  72 N3        30.11S
LANCASTER      FAIR      57  49  74 W5        30.13S
COATESVILLE    FAIR      57  50  77 CALM      30.13S
POTTSTOWN      FAIR      58  48  69 CALM      30.13S
BLUE BELL      FAIR      61  48  63 CALM      30.10S
DOYLESTOWN     FAIR      57  49  74 NE3       30.10S
WILLOW GROVE   NOT AVBL
NORTH PHILA    FAIR      62  47  57 N10       30.11S
PHILADELPHIA   FAIR      66  47  50 NW10      30.10F
$$


USA.gov is the U.S. government's official web portal to all federal, state and local government web resources and services.